BKN547 KCLE-KMCO

Flight info

Callsign BKN547
Flight time 2h 9m
Altitude 33000
Route CAVVS5 APE SPAYD/N0472F340 VXV THRSR/N0467F330 ZJAYX GRNCH5
Aircraft B39M/M-SDE2E3FGHIRWXY/LB1

Departure

Time 2026-05-07 20:30
Airport Cleveland Hopkins International Airport (KCLE)

Arrival

Time 2026-05-07 22:39
Airport Orlando International Airport (KMCO)
Time Latitude Longitude Altitude Speed Heading
2026-05-07 19:34 41.40886 -81.83949 795 ft 0 kts 323°
2026-05-07 20:22 41.40876 -81.83939 794 ft 2 kts 323°
2026-05-07 20:22 41.40864 -81.83928 794 ft 2 kts 323°
2026-05-07 20:23 41.40852 -81.83916 794 ft 2 kts 323°
2026-05-07 20:23 41.40844 -81.83909 794 ft 1 kts 309°
2026-05-07 20:23 41.40841 -81.83895 794 ft 0 kts 263°
2026-05-07 20:23 41.40842 -81.83885 794 ft 0 kts 259°
2026-05-07 20:25 41.40838 -81.83906 794 ft 6 kts 241°
2026-05-07 20:25 41.40768 -81.83969 794 ft 15 kts 211°
2026-05-07 20:26 41.40665 -81.84055 794 ft 19 kts 212°
2026-05-07 20:26 41.40611 -81.84174 794 ft 15 kts 269°
2026-05-07 20:26 41.40612 -81.84313 794 ft 14 kts 272°
2026-05-07 20:26 41.40647 -81.84432 792 ft 12 kts
2026-05-07 20:27 41.40747 -81.84433 792 ft 17 kts 359°
2026-05-07 20:27 41.40864 -81.84434 792 ft 12 kts
2026-05-07 20:27 41.40948 -81.84384 793 ft 15 kts 10°
2026-05-07 20:27 41.41069 -81.84380 793 ft 19 kts 359°
2026-05-07 20:28 41.41190 -81.84362 791 ft 13 kts 37°
2026-05-07 20:28 41.41283 -81.84354 791 ft 15 kts
2026-05-07 20:28 41.41362 -81.84242 791 ft 19 kts 47°
2026-05-07 20:28 41.41449 -81.84142 791 ft 12 kts 359°
2026-05-07 20:29 41.41514 -81.84221 791 ft 12 kts 261°
2026-05-07 20:29 41.41395 -81.84423 790 ft 58 kts 229°
2026-05-07 20:29 41.40984 -81.85069 787 ft 122 kts 230°
2026-05-07 20:29 41.40317 -81.86118 786 ft 171 kts 229°
2026-05-07 20:30 41.39521 -81.87360 1280 ft 180 kts 235°
2026-05-07 20:30 41.38728 -81.88711 1893 ft 191 kts 231°
2026-05-07 20:30 41.37580 -81.89723 2457 ft 211 kts 202°
2026-05-07 20:30 41.36089 -81.90048 2936 ft 224 kts 193°
2026-05-07 20:31 41.34523 -81.90552 3324 ft 239 kts 202°
2026-05-07 20:31 41.32900 -81.91262 3820 ft 253 kts 202°
2026-05-07 20:31 41.31195 -81.92003 4276 ft 267 kts 202°
2026-05-07 20:31 41.29412 -81.92766 4949 ft 273 kts 202°
2026-05-07 20:32 41.27613 -81.93533 5671 ft 276 kts 202°
2026-05-07 20:32 41.25756 -81.94331 5961 ft 281 kts 202°
2026-05-07 20:32 41.23912 -81.95126 6759 ft 280 kts 202°
2026-05-07 20:32 41.22097 -81.95901 7658 ft 276 kts 203°
2026-05-07 20:33 41.20270 -81.96690 8398 ft 277 kts 203°
2026-05-07 20:33 41.18436 -81.97523 9116 ft 278 kts 206°
2026-05-07 20:33 41.16673 -81.98450 9842 ft 278 kts 208°
2026-05-07 20:33 41.14875 -81.99423 10426 ft 284 kts 208°
2026-05-07 20:34 41.13010 -82.00427 10825 ft 296 kts 208°
2026-05-07 20:34 41.11035 -82.01481 11186 ft 310 kts 208°
2026-05-07 20:34 41.08992 -82.02563 11528 ft 323 kts 207°
2026-05-07 20:34 41.06869 -82.03687 11848 ft 337 kts 207°
2026-05-07 20:35 41.04649 -82.04862 12123 ft 350 kts 207°
2026-05-07 20:35 41.02364 -82.06068 12628 ft 356 kts 207°
2026-05-07 20:35 41.00092 -82.07262 13372 ft 355 kts 207°
2026-05-07 20:35 40.97815 -82.08460 14031 ft 355 kts 208°
2026-05-07 20:36 40.95499 -82.09691 14644 ft 356 kts 209°
2026-05-07 20:36 40.93241 -82.11013 15193 ft 358 kts 211°
2026-05-07 20:36 40.91009 -82.12420 15783 ft 359 kts 212°
2026-05-07 20:36 40.88772 -82.13834 16444 ft 359 kts 212°
2026-05-07 20:37 40.86478 -82.15269 17009 ft 362 kts 212°
2026-05-07 20:37 40.84196 -82.16679 17575 ft 364 kts 212°
2026-05-07 20:37 40.81909 -82.18086 18169 ft 364 kts 212°
2026-05-07 20:37 40.79635 -82.19485 18716 ft 365 kts 212°
2026-05-07 20:38 40.77322 -82.20906 19261 ft 366 kts 212°
2026-05-07 20:38 40.75042 -82.22307 19767 ft 366 kts 213°
2026-05-07 20:38 40.72737 -82.23723 20220 ft 368 kts 213°
2026-05-07 20:38 40.70415 -82.25147 20706 ft 369 kts 213°
2026-05-07 20:39 40.68066 -82.26587 21060 ft 373 kts 214°
2026-05-07 20:39 40.65723 -82.28024 21602 ft 371 kts 214°
2026-05-07 20:39 40.63383 -82.29456 21986 ft 373 kts 214°
2026-05-07 20:39 40.61043 -82.30890 22334 ft 376 kts 214°
2026-05-07 20:40 40.58651 -82.32354 22759 ft 377 kts 215°
2026-05-07 20:40 40.56286 -82.33800 23203 ft 376 kts 215°
2026-05-07 20:40 40.53930 -82.35239 23592 ft 377 kts 215°
2026-05-07 20:40 40.51528 -82.36711 23839 ft 382 kts 216°
2026-05-07 20:41 40.49135 -82.38171 24281 ft 382 kts 216°
2026-05-07 20:41 40.46718 -82.39647 24508 ft 386 kts 216°
2026-05-07 20:41 40.44264 -82.41146 24880 ft 387 kts 216°
2026-05-07 20:41 40.41827 -82.42628 25144 ft 391 kts 216°
2026-05-07 20:42 40.39375 -82.44119 25548 ft 391 kts 216°
2026-05-07 20:42 40.36888 -82.45631 25881 ft 392 kts 216°
2026-05-07 20:42 40.34434 -82.47122 26061 ft 397 kts 216°
2026-05-07 20:42 40.31941 -82.48634 26462 ft 396 kts 216°
2026-05-07 20:43 40.29422 -82.50162 26687 ft 399 kts 216°
2026-05-07 20:43 40.26908 -82.51682 27120 ft 398 kts 216°
2026-05-07 20:43 40.24369 -82.53222 27268 ft 402 kts 216°
2026-05-07 20:43 40.21835 -82.54757 27558 ft 404 kts 216°
2026-05-07 20:44 40.19272 -82.56252 27772 ft 410 kts 213°
2026-05-07 20:44 40.16571 -82.57489 28073 ft 420 kts 207°
2026-05-07 20:44 40.13615 -82.58135 28455 ft 438 kts 196°
2026-05-07 20:44 40.10533 -82.58122 28770 ft 449 kts 190°
2026-05-07 20:45 40.07404 -82.57801 29106 ft 453 kts 188°
2026-05-07 20:45 40.04246 -82.57380 29362 ft 455 kts 187°
2026-05-07 20:45 40.01112 -82.56933 29723 ft 453 kts 187°
2026-05-07 20:45 39.97996 -82.56490 29991 ft 453 kts 187°
2026-05-07 20:46 39.94871 -82.56056 30115 ft 457 kts 187°
2026-05-07 20:46 39.91689 -82.55617 30358 ft 457 kts 187°
2026-05-07 20:46 39.88542 -82.55177 30754 ft 453 kts 188°
2026-05-07 20:46 39.85428 -82.54739 31153 ft 449 kts 188°
2026-05-07 20:47 39.82335 -82.54311 31345 ft 450 kts 188°
2026-05-07 20:47 39.79233 -82.53890 31550 ft 451 kts 188°
2026-05-07 20:47 39.76098 -82.53466 31665 ft 454 kts 188°
2026-05-07 20:47 39.72977 -82.53035 32094 ft 448 kts 188°
2026-05-07 20:48 39.69895 -82.52605 32367 ft 446 kts 189°
2026-05-07 20:48 39.66835 -82.52187 32485 ft 449 kts 189°
2026-05-07 20:48 39.63694 -82.51766 32620 ft 451 kts 188°
2026-05-07 20:48 39.60598 -82.51346 32868 ft 449 kts 189°
2026-05-07 20:49 39.57516 -82.50923 32950 ft 451 kts 189°
2026-05-07 20:49 39.51315 -82.50075 32954 ft 446 kts 189°
2026-05-07 20:50 39.45119 -82.49240 32962 ft 450 kts 189°
2026-05-07 20:50 39.38911 -82.48399 32969 ft 448 kts 189°
2026-05-07 20:51 39.32705 -82.47556 32968 ft 446 kts 189°
2026-05-07 20:51 39.26562 -82.46725 32970 ft 448 kts 189°
2026-05-07 20:52 39.20361 -82.45895 32980 ft 450 kts 189°
2026-05-07 20:52 39.14124 -82.45053 32981 ft 449 kts 189°
2026-05-07 20:53 39.07923 -82.44215 32981 ft 450 kts 189°
2026-05-07 20:53 39.01714 -82.43381 32970 ft 445 kts 189°
2026-05-07 20:54 38.95564 -82.42561 32968 ft 450 kts 189°
2026-05-07 20:54 38.89320 -82.41730 32963 ft 450 kts 189°
2026-05-07 20:55 38.83102 -82.40897 32965 ft 451 kts 189°
2026-05-07 20:55 38.76860 -82.40065 32952 ft 451 kts 189°
2026-05-07 20:56 38.70628 -82.39236 33008 ft 452 kts 189°
2026-05-07 20:56 38.67527 -82.38827 33161 ft 453 kts 189°
2026-05-07 20:56 38.64391 -82.38409 33444 ft 451 kts 189°
2026-05-07 20:56 38.61274 -82.37992 33641 ft 451 kts 189°
2026-05-07 20:57 38.58128 -82.37580 33712 ft 454 kts 189°
2026-05-07 20:57 38.55011 -82.37167 33941 ft 452 kts 189°
2026-05-07 20:57 38.51884 -82.36754 33956 ft 453 kts 189°
2026-05-07 20:58 38.45654 -82.35925 33959 ft 450 kts 189°
2026-05-07 20:58 38.39438 -82.35106 33959 ft 453 kts 189°
2026-05-07 20:59 38.33148 -82.34283 33951 ft 452 kts 189°
2026-05-07 20:59 38.26885 -82.33460 33951 ft 453 kts 189°
2026-05-07 21:00 38.20736 -82.33347 33950 ft 429 kts 203°
2026-05-07 21:00 38.17930 -82.34184 33957 ft 406 kts 213°
2026-05-07 21:00 38.15327 -82.35477 33951 ft 394 kts 218°
2026-05-07 21:01 38.10542 -82.38648 33957 ft 388 kts 222°
2026-05-07 21:01 38.05832 -82.42015 33949 ft 389 kts 222°
2026-05-07 21:02 38.01117 -82.45355 33959 ft 390 kts 221°
2026-05-07 21:02 37.96409 -82.48677 33953 ft 386 kts 222°
2026-05-07 21:03 37.91707 -82.51990 33956 ft 387 kts 222°
2026-05-07 21:03 37.87033 -82.55282 33961 ft 385 kts 222°
2026-05-07 21:04 37.82349 -82.58574 33964 ft 385 kts 223°
2026-05-07 21:04 37.77699 -82.61835 33968 ft 381 kts 222°
2026-05-07 21:05 37.73064 -82.65080 33970 ft 380 kts 222°
2026-05-07 21:05 37.68417 -82.68340 33971 ft 383 kts 222°
2026-05-07 21:06 37.63755 -82.71596 33972 ft 383 kts 222°
2026-05-07 21:06 37.59119 -82.74829 33969 ft 382 kts 223°
2026-05-07 21:07 37.54502 -82.78040 33970 ft 378 kts 222°
2026-05-07 21:07 37.49880 -82.81244 33978 ft 379 kts 223°
2026-05-07 21:08 37.45313 -82.84424 33966 ft 374 kts 223°
2026-05-07 21:08 37.40723 -82.87618 33970 ft 376 kts 223°
2026-05-07 21:09 37.36156 -82.90788 33972 ft 376 kts 223°
2026-05-07 21:09 37.31606 -82.93925 33966 ft 372 kts 223°
2026-05-07 21:10 37.27026 -82.97090 33969 ft 378 kts 223°
2026-05-07 21:10 37.22432 -83.00262 33971 ft 375 kts 223°
2026-05-07 21:11 37.17892 -83.03383 33969 ft 371 kts 223°
2026-05-07 21:11 37.11109 -83.08071 33973 ft 374 kts 223°
2026-05-07 21:12 37.06566 -83.11165 33978 ft 369 kts 223°
2026-05-07 21:12 37.02068 -83.14256 33978 ft 372 kts 223°
2026-05-07 21:13 36.97544 -83.17347 33979 ft 366 kts 224°
2026-05-07 21:13 36.93084 -83.20413 33981 ft 370 kts 224°
2026-05-07 21:14 36.88581 -83.23490 33979 ft 368 kts 224°
2026-05-07 21:14 36.84103 -83.26542 33982 ft 369 kts 224°
2026-05-07 21:15 36.79596 -83.29608 33981 ft 368 kts 224°
2026-05-07 21:15 36.75138 -83.32637 33985 ft 368 kts 224°
2026-05-07 21:16 36.70641 -83.35691 33984 ft 367 kts 223°
2026-05-07 21:16 36.66140 -83.38746 33990 ft 369 kts 224°
2026-05-07 21:17 36.61644 -83.41787 33977 ft 368 kts 223°
2026-05-07 21:17 36.57156 -83.44829 33982 ft 370 kts 224°
2026-05-07 21:18 36.52636 -83.47880 33986 ft 368 kts 224°
2026-05-07 21:18 36.48169 -83.50891 33985 ft 367 kts 224°
2026-05-07 21:19 36.43652 -83.53949 33986 ft 370 kts 223°
2026-05-07 21:19 36.39142 -83.56979 33986 ft 367 kts 223°
2026-05-07 21:20 36.34649 -83.59994 33983 ft 369 kts 223°
2026-05-07 21:20 36.30167 -83.62999 33983 ft 367 kts 224°
2026-05-07 21:21 36.25665 -83.66020 33979 ft 369 kts 223°
2026-05-07 21:21 36.21152 -83.69037 33971 ft 369 kts 223°
2026-05-07 21:22 36.16619 -83.72057 33970 ft 369 kts 222°
2026-05-07 21:22 36.12138 -83.75045 33971 ft 370 kts 223°
2026-05-07 21:23 36.07597 -83.78085 33978 ft 370 kts 223°
2026-05-07 21:23 36.03065 -83.81098 33978 ft 370 kts 223°
2026-05-07 21:24 35.98547 -83.84103 33980 ft 369 kts 223°
2026-05-07 21:24 35.94026 -83.87093 33981 ft 371 kts 222°
2026-05-07 21:25 35.89221 -83.89616 33977 ft 389 kts 212°
2026-05-07 21:25 35.86552 -83.90423 33980 ft 400 kts 208°
2026-05-07 21:25 35.83814 -83.91099 33976 ft 402 kts 207°
2026-05-07 21:26 35.78301 -83.92420 33976 ft 405 kts 208°
2026-05-07 21:26 35.72786 -83.93771 33972 ft 404 kts 208°
2026-05-07 21:27 35.67252 -83.95122 33974 ft 407 kts 207°
2026-05-07 21:27 35.61731 -83.96455 33972 ft 404 kts 208°
2026-05-07 21:28 35.56214 -83.97800 33968 ft 406 kts 208°
2026-05-07 21:28 35.50701 -83.99126 33970 ft 403 kts 207°
2026-05-07 21:29 35.45220 -84.00446 33970 ft 401 kts 208°
2026-05-07 21:29 35.39695 -84.01791 33974 ft 404 kts 207°
2026-05-07 21:30 35.34210 -84.03110 33981 ft 404 kts 207°
2026-05-07 21:30 35.28658 -84.04454 33981 ft 407 kts 207°
2026-05-07 21:31 35.23078 -84.05789 33987 ft 408 kts 207°
2026-05-07 21:31 35.17536 -84.07113 33985 ft 407 kts 207°
2026-05-07 21:32 35.11998 -84.08425 33983 ft 403 kts 207°
2026-05-07 21:32 35.06489 -84.09754 33974 ft 404 kts 207°
2026-05-07 21:33 35.01015 -84.11058 33978 ft 399 kts 207°
2026-05-07 21:33 34.95547 -84.12386 33973 ft 405 kts 207°
2026-05-07 21:34 34.89991 -84.13714 33978 ft 407 kts 207°
2026-05-07 21:34 34.84455 -84.15019 33981 ft 405 kts 206°
2026-05-07 21:35 34.78925 -84.16341 33984 ft 409 kts 206°
2026-05-07 21:35 34.73313 -84.17673 33983 ft 411 kts 206°
2026-05-07 21:36 34.67739 -84.18984 33973 ft 407 kts 206°
2026-05-07 21:36 34.62164 -84.20303 33968 ft 409 kts 207°
2026-05-07 21:37 34.56614 -84.21606 33972 ft 408 kts 206°
2026-05-07 21:37 34.51067 -84.22913 33961 ft 405 kts 206°
2026-05-07 21:38 34.45542 -84.24223 33965 ft 408 kts 206°
2026-05-07 21:38 34.39952 -84.25547 33972 ft 411 kts 206°
2026-05-07 21:39 34.34312 -84.26878 33966 ft 409 kts 206°
2026-05-07 21:39 34.28742 -84.28181 33965 ft 410 kts 206°
2026-05-07 21:40 34.23159 -84.29488 33975 ft 411 kts 206°
2026-05-07 21:40 34.17566 -84.30792 33962 ft 406 kts 206°
2026-05-07 21:41 34.11991 -84.32100 33965 ft 410 kts 206°
2026-05-07 21:41 34.06385 -84.33415 33964 ft 412 kts 205°
2026-05-07 21:42 34.00748 -84.34723 33965 ft 412 kts 206°
2026-05-07 21:42 33.95152 -84.36031 33961 ft 410 kts 205°
2026-05-07 21:43 33.89543 -84.37338 33963 ft 411 kts 205°
2026-05-07 21:43 33.83926 -84.38641 33962 ft 411 kts 205°
2026-05-07 21:44 33.78301 -84.39949 33628 ft 414 kts 205°
2026-05-07 21:44 33.75460 -84.40601 33341 ft 410 kts 205°
2026-05-07 21:44 33.72697 -84.41235 33073 ft 409 kts 205°
2026-05-07 21:45 33.69877 -84.41885 32966 ft 410 kts 204°
2026-05-07 21:45 33.67044 -84.42370 32963 ft 422 kts 199°
2026-05-07 21:45 33.64001 -84.42397 32950 ft 446 kts 188°
2026-05-07 21:45 33.60898 -84.41647 32961 ft 464 kts 178°
2026-05-07 21:46 33.57803 -84.40395 32954 ft 476 kts 172°
2026-05-07 21:46 33.54759 -84.38799 32959 ft 485 kts 168°
2026-05-07 21:46 33.48725 -84.35194 32954 ft 484 kts 166°
2026-05-07 21:47 33.42697 -84.31517 32957 ft 485 kts 166°
2026-05-07 21:47 33.36635 -84.27882 32957 ft 489 kts 166°
2026-05-07 21:48 33.30627 -84.24281 32951 ft 482 kts 166°
2026-05-07 21:48 33.24610 -84.20709 32947 ft 484 kts 166°
2026-05-07 21:49 33.18588 -84.17142 32937 ft 485 kts 166°
2026-05-07 21:49 33.12574 -84.13573 32932 ft 481 kts 166°
2026-05-07 21:50 33.06606 -84.10050 32935 ft 481 kts 166°
2026-05-07 21:50 33.00599 -84.06509 32931 ft 481 kts 166°
2026-05-07 21:51 32.94591 -84.02974 32929 ft 483 kts 166°
2026-05-07 21:51 32.88575 -83.99431 32933 ft 481 kts 165°
2026-05-07 21:52 32.82611 -83.95928 32926 ft 479 kts 165°
2026-05-07 21:52 32.76645 -83.92431 32930 ft 481 kts 165°
2026-05-07 21:53 32.70604 -83.88901 32929 ft 481 kts 165°
2026-05-07 21:53 32.64651 -83.85413 32932 ft 479 kts 165°
2026-05-07 21:54 32.58648 -83.81916 32933 ft 483 kts 165°
2026-05-07 21:54 32.52626 -83.78408 32933 ft 482 kts 165°
2026-05-07 21:55 32.46598 -83.74902 32938 ft 484 kts 165°
2026-05-07 21:55 32.40604 -83.71414 32937 ft 480 kts 165°
2026-05-07 21:56 32.34610 -83.67936 32934 ft 481 kts 165°
2026-05-07 21:56 32.28589 -83.64449 32935 ft 482 kts 165°
2026-05-07 21:57 32.22604 -83.60986 32934 ft 480 kts 165°
2026-05-07 21:57 32.16597 -83.57519 32933 ft 482 kts 164°
2026-05-07 21:58 32.10531 -83.54024 32934 ft 484 kts 164°
2026-05-07 21:58 32.04533 -83.50567 32935 ft 481 kts 164°
2026-05-07 21:59 31.98504 -83.47099 32936 ft 482 kts 164°
2026-05-07 21:59 31.92490 -83.43646 32927 ft 481 kts 164°
2026-05-07 22:00 31.86455 -83.40189 32927 ft 483 kts 164°
2026-05-07 22:00 31.80468 -83.36757 32932 ft 480 kts 163°
2026-05-07 22:01 31.74432 -83.33312 32938 ft 481 kts 164°
2026-05-07 22:01 31.68412 -83.29878 32941 ft 482 kts 164°
2026-05-07 22:02 31.62369 -83.26436 32940 ft 483 kts 163°
2026-05-07 22:02 31.56333 -83.23040 32935 ft 481 kts 164°
2026-05-07 22:03 31.50288 -83.19662 32930 ft 482 kts 164°
2026-05-07 22:03 31.44271 -83.16299 32923 ft 481 kts 164°
2026-05-07 22:04 31.38210 -83.12918 32921 ft 483 kts 164°
2026-05-07 22:04 31.32153 -83.09540 32916 ft 481 kts 164°
2026-05-07 22:05 31.26096 -83.06171 32918 ft 488 kts 164°
2026-05-07 22:05 31.19980 -83.02771 32916 ft 486 kts 163°
2026-05-07 22:06 31.13856 -82.99369 32919 ft 487 kts 163°
2026-05-07 22:06 31.07749 -82.95978 32927 ft 485 kts 163°
2026-05-07 22:07 31.01626 -82.92590 32929 ft 488 kts 163°
2026-05-07 22:07 30.95512 -82.89211 32929 ft 484 kts 163°
2026-05-07 22:08 30.89508 -82.85585 32928 ft 494 kts 156°
2026-05-07 22:08 30.83843 -82.80921 32923 ft 502 kts 150°
2026-05-07 22:09 30.78308 -82.75935 32920 ft 502 kts 149°
2026-05-07 22:09 30.72834 -82.70974 32919 ft 503 kts 149°
2026-05-07 22:10 30.67298 -82.65975 32917 ft 503 kts 149°
2026-05-07 22:10 30.61787 -82.61012 32917 ft 502 kts 149°
2026-05-07 22:11 30.56273 -82.56059 32917 ft 503 kts 149°
2026-05-07 22:11 30.50752 -82.51108 32918 ft 503 kts 149°
2026-05-07 22:12 30.45194 -82.46130 32923 ft 503 kts 149°
2026-05-07 22:12 30.39667 -82.41187 32926 ft 504 kts 149°
2026-05-07 22:13 30.34127 -82.36242 32929 ft 503 kts 149°
2026-05-07 22:13 30.28580 -82.31296 32930 ft 501 kts 150°
2026-05-07 22:14 30.23009 -82.26475 32931 ft 499 kts 154°
2026-05-07 22:14 30.16930 -82.23193 32943 ft 473 kts 175°
2026-05-07 22:15 30.10469 -82.21734 32934 ft 470 kts 179°
2026-05-07 22:15 30.04030 -82.20482 32729 ft 473 kts 180°
2026-05-07 22:16 30.00798 -82.19858 32474 ft 472 kts 179°
2026-05-07 22:16 29.97580 -82.19228 32218 ft 470 kts 179°
2026-05-07 22:16 29.94351 -82.18594 31964 ft 470 kts 179°
2026-05-07 22:16 29.91122 -82.17959 31709 ft 470 kts 179°
2026-05-07 22:17 29.87900 -82.17323 31452 ft 471 kts 179°
2026-05-07 22:17 29.84659 -82.16680 31194 ft 473 kts 179°
2026-05-07 22:17 29.81414 -82.16034 30937 ft 475 kts 178°
2026-05-07 22:17 29.78153 -82.15383 30678 ft 475 kts 178°
2026-05-07 22:18 29.74878 -82.14731 30420 ft 476 kts 178°
2026-05-07 22:18 29.68335 -82.13430 29907 ft 479 kts 178°
2026-05-07 22:18 29.65085 -82.12785 29654 ft 480 kts 178°
2026-05-07 22:19 29.61800 -82.12132 29069 ft 481 kts 178°
2026-05-07 22:19 29.58496 -82.11475 28312 ft 480 kts 178°
2026-05-07 22:19 29.55206 -82.10820 27571 ft 479 kts 178°
2026-05-07 22:19 29.51940 -82.10171 26837 ft 477 kts 177°
2026-05-07 22:20 29.48683 -82.09524 26204 ft 473 kts 178°
2026-05-07 22:20 29.45487 -82.08884 25995 ft 459 kts 178°
2026-05-07 22:20 29.42398 -82.08263 25963 ft 445 kts 178°
2026-05-07 22:20 29.39363 -82.07657 25631 ft 439 kts 178°
2026-05-07 22:21 29.36334 -82.07060 24898 ft 440 kts 177°
2026-05-07 22:21 29.33322 -82.06368 24159 ft 445 kts 174°
2026-05-07 22:21 29.30346 -82.05370 23481 ft 451 kts 165°
2026-05-07 22:21 29.27510 -82.03939 22890 ft 452 kts 160°
2026-05-07 22:22 29.24695 -82.02264 22173 ft 454 kts 157°
2026-05-07 22:22 29.21936 -82.00532 21465 ft 454 kts 156°
2026-05-07 22:22 29.19189 -81.98788 20754 ft 454 kts 156°
2026-05-07 22:22 29.16412 -81.97026 20009 ft 450 kts 156°
2026-05-07 22:23 29.13716 -81.95319 19311 ft 442 kts 156°
2026-05-07 22:23 29.11073 -81.93649 18609 ft 435 kts 156°
2026-05-07 22:23 29.08489 -81.91891 17916 ft 431 kts 150°
2026-05-07 22:23 29.06076 -81.89877 17225 ft 427 kts 144°
2026-05-07 22:24 29.03828 -81.87668 16528 ft 422 kts 141°
2026-05-07 22:24 29.01692 -81.85426 15842 ft 415 kts 140°
2026-05-07 22:24 28.99626 -81.83205 15231 ft 408 kts 139°
2026-05-07 22:24 28.97698 -81.80872 15014 ft 391 kts 133°
2026-05-07 22:25 28.96044 -81.78536 14986 ft 374 kts 131°
2026-05-07 22:25 28.94469 -81.76200 14990 ft 374 kts 130°
2026-05-07 22:25 28.92855 -81.73795 14888 ft 390 kts 130°
2026-05-07 22:25 28.91181 -81.71305 14478 ft 392 kts 130°
2026-05-07 22:26 28.89556 -81.68890 13985 ft 384 kts 130°
2026-05-07 22:26 28.87934 -81.66479 13406 ft 378 kts 130°
2026-05-07 22:26 28.86357 -81.64141 12823 ft 373 kts 130°
2026-05-07 22:26 28.84779 -81.61805 12228 ft 369 kts 130°
2026-05-07 22:27 28.83239 -81.59526 11638 ft 364 kts 130°
2026-05-07 22:27 28.81704 -81.57256 11289 ft 356 kts 129°
2026-05-07 22:27 28.80165 -81.55119 11120 ft 343 kts 136°
2026-05-07 22:27 28.78385 -81.53406 10964 ft 326 kts 151°
2026-05-07 22:28 28.76445 -81.52181 10958 ft 311 kts 157°
2026-05-07 22:28 28.74519 -81.51083 10981 ft 310 kts 157°
2026-05-07 22:28 28.72570 -81.49962 10958 ft 312 kts 156°
2026-05-07 22:28 28.70641 -81.48826 10644 ft 311 kts 156°
2026-05-07 22:29 28.68748 -81.47699 10269 ft 311 kts 155°
2026-05-07 22:29 28.66823 -81.46549 9826 ft 312 kts 155°
2026-05-07 22:29 28.64893 -81.45396 9413 ft 312 kts 155°
2026-05-07 22:29 28.62972 -81.44247 8993 ft 313 kts 155°
2026-05-07 22:30 28.61016 -81.43160 8712 ft 306 kts 162°
2026-05-07 22:30 28.59016 -81.42547 8620 ft 290 kts 175°
2026-05-07 22:30 28.57049 -81.42353 8500 ft 278 kts 182°
2026-05-07 22:30 28.55132 -81.42360 8185 ft 277 kts 184°
2026-05-07 22:31 28.53201 -81.42394 7852 ft 276 kts 183°
2026-05-07 22:31 28.51270 -81.42409 7531 ft 275 kts 182°
2026-05-07 22:31 28.49371 -81.42413 7215 ft 274 kts 182°
2026-05-07 22:31 28.47462 -81.42413 6903 ft 273 kts 182°
2026-05-07 22:32 28.45577 -81.42414 6766 ft 261 kts 182°
2026-05-07 22:32 28.43825 -81.42413 6668 ft 247 kts 182°
2026-05-07 22:32 28.42134 -81.42413 6513 ft 235 kts 182°
2026-05-07 22:32 28.40492 -81.42416 6041 ft 238 kts 182°
2026-05-07 22:33 28.38830 -81.42417 5639 ft 238 kts 181°
2026-05-07 22:33 28.37194 -81.42417 5251 ft 237 kts 181°
2026-05-07 22:33 28.35534 -81.42416 4949 ft 235 kts 182°
2026-05-07 22:33 28.33914 -81.42403 4645 ft 234 kts 176°
2026-05-07 22:34 28.32357 -81.42009 4509 ft 223 kts 163°
2026-05-07 22:34 28.30940 -81.41451 4451 ft 208 kts 162°
2026-05-07 22:34 28.29576 -81.40917 4110 ft 211 kts 163°
2026-05-07 22:34 28.28177 -81.40370 3814 ft 210 kts 163°
2026-05-07 22:35 28.26847 -81.39682 3482 ft 213 kts 142°
2026-05-07 22:35 28.25999 -81.38341 3175 ft 213 kts 105°
2026-05-07 22:35 28.25997 -81.36748 2906 ft 198 kts 68°
2026-05-07 22:35 28.26746 -81.35506 2432 ft 192 kts 40°
2026-05-07 22:36 28.27870 -81.34852 2076 ft 175 kts
2026-05-07 22:36 28.29009 -81.34515 1987 ft 166 kts 14°
2026-05-07 22:36 28.30134 -81.34080 1979 ft 174 kts 15°
2026-05-07 22:36 28.31289 -81.33624 1937 ft 177 kts 15°
2026-05-07 22:37 28.32469 -81.33154 1791 ft 178 kts 15°
2026-05-07 22:37 28.33588 -81.32703 1634 ft 167 kts 15°
2026-05-07 22:37 28.34701 -81.32440 1363 ft 160 kts 357°
2026-05-07 22:37 28.35805 -81.32446 1129 ft 160 kts 354°
2026-05-07 22:38 28.36926 -81.32501 932 ft 160 kts 353°
2026-05-07 22:38 28.38029 -81.32574 757 ft 159 kts 353°
2026-05-07 22:38 28.39137 -81.32624 545 ft 159 kts 354°
2026-05-07 22:38 28.40257 -81.32651 344 ft 160 kts 356°
2026-05-07 22:39 28.41364 -81.32660 149 ft 161 kts 356°
2026-05-07 22:39 28.42451 -81.32671 95 ft 134 kts 359°
2026-05-07 22:39 28.43149 -81.32687 95 ft 68 kts
2026-05-07 22:39 28.43533 -81.32683 95 ft 48 kts
2026-05-07 22:40 28.43742 -81.32552 92 ft 29 kts 57°
2026-05-07 22:40 28.43844 -81.32359 92 ft 27 kts 59°
2026-05-07 22:40 28.43938 -81.32184 92 ft 25 kts 58°
2026-05-07 22:40 28.43987 -81.32044 92 ft 13 kts 104°
2026-05-07 22:41 28.43915 -81.32001 92 ft 13 kts 179°
2026-05-07 22:41 28.43813 -81.32003 92 ft 15 kts 181°
2026-05-07 22:41 28.43702 -81.32002 92 ft 16 kts 179°
2026-05-07 22:41 28.43583 -81.32002 92 ft 17 kts 181°
2026-05-07 22:42 28.43453 -81.32004 92 ft 18 kts 175°
2026-05-07 22:42 28.43318 -81.31995 92 ft 20 kts 179°
2026-05-07 22:42 28.43183 -81.31995 92 ft 19 kts 180°
2026-05-07 22:42 28.43075 -81.31969 91 ft 15 kts 131°
2026-05-07 22:43 28.43011 -81.31859 89 ft 17 kts 123°
2026-05-07 22:43 28.42953 -81.31754 89 ft 13 kts 124°
2026-05-07 22:43 28.42878 -81.31695 89 ft 12 kts 166°
2026-05-07 22:43 28.42797 -81.31674 89 ft 11 kts 167°
2026-05-07 22:44 28.42725 -81.31638 89 ft 8 kts 109°
2026-05-07 22:44 28.42725 -81.31627 89 ft 0 kts 73°
2026-05-07 22:44 28.42725 -81.31625 89 ft 1 kts 73°
2026-05-07 22:44 28.42733 -81.31586 89 ft 6 kts 79°
2026-05-07 22:45 28.42742 -81.31540 88 ft 5 kts 70°
2026-05-07 22:45 28.42763 -81.31507 87 ft 3 kts 50°
2026-05-07 22:45 28.42770 -81.31496 87 ft 0 kts 51°